Preview of NWS' New Version of Forecast
This preview is not operational and should not be used for support decisions.

Regional Weather Roundup (RWR)

Issued by National Weather Service (NWS)

                            
000
ASUS46 KPQR 180410
RWROR 

OREGON REGIONAL WEATHER ROUNDUP
NATIONAL WEATHER SERVICE PORTLAND OR
900 PM PDT SAT AUG 17 2019

NOTE: "FAIR" INDICATES FEW OR NO CLOUDS BELOW 12,000 FEET WITH
NO SIGNIFICANT WEATHER AND/OR OBSTRUCTIONS TO VISIBILITY.

ORZ001>013-180500-
NORTHWEST OREGON

  
CITY           SKY/WX    TMP DP  RH WIND       PRES   REMARKS
ASTORIA        CLOUDY    62  57  83 W7        29.95S                  
TILLAMOOK      PTCLDY    63  55  77 SE3       29.96S                  
NEWPORT        CLEAR     61  57  88 N6        29.96S                  
PORTLAND       MOCLDY    69  57  65 N3        29.92S                  
VANCOUVER WA   CLOUDY    68  56  65 NW3       29.92S                  
SCAPPOOSE      PTCLDY    65  56  72 NW3       29.91F                  
HILLSBORO      CLOUDY    67  56  67 N5        29.92S                  
AURORA         CLEAR     65  53  65 N5        29.92F                  
MCMINNVILLE    MOCLDY    64  54  69 NE3       29.91S                  
SALEM          CLEAR     67  52  58 N6        29.90S                  
CORVALLIS      CLEAR     68  57  68 NW7       29.91R                  
EUGENE         PTCLDY    68  52  56 N10       29.89S                  
$$

ORZ021-028-180500-
SOUTHWEST OREGON

  
CITY           SKY/WX    TMP DP  RH WIND       PRES   REMARKS
NORTH BEND     CLEAR     61  58  90 N17G24    29.92S                  
BROOKINGS      CLEAR     61  54  77 SE7       29.80R                  
ROSEBURG       CLEAR     76  50  40 N6        29.86R                  
SEXTON SUMMIT  CLEAR     61  45  55 N9        29.95S                  
GRANTS PASS    FAIR      77  45  31 N9        29.86R                  
MEDFORD        CLEAR     78  45  30 NW3       29.82R                  
$$

ORZ014>016-041-180500-
COLUMBIA GORGE

  
CITY           SKY/WX    TMP DP  RH WIND       PRES   REMARKS
TROUTDALE      CLOUDY    69  56  62 CALM      29.92S                  
HOOD RIVER     PTCLDY    64  52  63 CALM      29.89S                  
THE DALLES     CLEAR     69  52  54 NW9       29.84R                  
$$

ORZ029>031-041-044-049-050-061>064-502-503-505>511-180500-
EASTERN OREGON

  
CITY           SKY/WX    TMP DP  RH WIND       PRES   REMARKS
MADRAS         CLEAR     64  48  55 NE5       29.91R                  
REDMOND        CLEAR     66  38  35 CALM      29.91R                  
BEND           CLEAR     68  41  37 NW5       29.92R                  
PRINEVILLE     CLEAR     68  41  37 N9        29.91R                  
KLAMATH FALLS  CLEAR     70  42  36 W3        29.93R                  
LAKEVIEW       CLEAR     62  35  36 NE5       29.96R                  
HERMISTON      PTCLDY    74  51  44 W8        29.78R                  
PENDLETON      PTCLDY    69  46  43 CALM      29.82R                  
JOHN DAY       PTCLDY    70  38  31 CALM      29.92R                  
MEACHAM        PTCLDY    58  45  62 CALM      29.93S                  
LA GRANDE      MOCLDY    68  47  46 NW6       29.89                   
BAKER CITY     MOCLDY    67  47  48 NW7       29.90R                  
BURNS          PTCLDY    63  32  31 N8        29.92R                  
ROME             N/A     74  34  23 E8        29.89R                  
ONTARIO        PTCLDY    71  51  49 NW3       29.80R                  
$$